Location: Ch�ze
(42.9000°N, 0.0333°W)
Time: 23:07:31
(UTC+00:00)

NOSS 2-1 (D) - Pass Details

Date: 24 January 2021
Orbit: 434 x 1768 km, 63.3° (Epoch: 23 February)

Event Time Altitude Azimuth Distance (km) Brightness Sun altitude
Rises 18:36:38 0° 224° (SW) 2,490 7.6 -17.2°
Reaches altitude 10° 18:38:48 10° 229° (SW) 1,561 6.5 -17.5°
Maximum altitude 18:42:04 56° 309° (NW) 524 3.4 -18.1°
Enters shadow 18:43:25 31° 14° (NNE) 804 3.9 -18.4°
